Flag for Germany Weather past 2 weeks in Darmstadt, Hesse, Germany

61 °F

Partly sunny.

Feels Like: 61 °F
Forecast: 49 / 60 °F
Wind: 9 mph from Southwest

Location: Frankfurt-M-Flughafen Airport

Current Time: Oct 7, 2015 at 10:53:01 AM

Latest Report: Oct 7, 2015 at 10:20 AM

Visibility: N/A

Pressure: 29.86 "Hg

Humidity: 88%

Dew point: 57 °F

Location of DarmstadtLocation

Historic Weather in Darmstadt — Graph


Darmstadt temperature yesterday

Maximum temperature yesterday: 66 °F (at 2:20 PM)
Minimum temperature yesterday: 57 °F (at 1:20 AM)
Average temperature yesterday: 62 °F

Past Weeks' High & Low Weather Summary

High68 °F (Oct 2, 3:20 PM)100% (Sep 24, 4:50 AM)30.60 "Hg (Sep 24, 4:50 AM)
Low43 °F (Oct 2, 6:20 AM)32% (Oct 1, 3:50 PM)29.59 "Hg (Sep 22, 4:20 PM)
Average56 °F71%30.15 "Hg
* Reported Sep 22 9:20 AM — Oct 7 9:20 AM, Darmstadt, Weather by CustomWeather, © 2015

Note: Actual official high and low records may vary slightly from our data, if they occured in-between our weather recording intervals... More about our weather records


Darmstadt weather history for previous 24 hours

Time TempWeatherWind HumidityBarometerVisibility
9:20 AM
Wed, Oct 7
59 °FBroken clouds.9 mph94%29.83 "HgN/A
8:50 AM59 °FBroken clouds.6 mph94%29.83 "HgN/A
8:20 AM59 °FPartly cloudy.6 mph94%29.83 "HgN/A
7:50 AM59 °FPassing clouds.3 mph94%29.80 "HgN/A
7:20 AM59 °FPassing clouds.3 mph94%29.80 "HgN/A
6:50 AM57 °FPassing clouds.7 mph100%29.80 "HgN/A
6:20 AM59 °FPassing clouds.5 mph94%29.80 "HgN/A
5:20 AM59 °FPartly cloudy.7 mph94%29.77 "HgN/A
4:50 AM59 °FPartly cloudy.9 mph94%29.77 "HgN/A
4:20 AM59 °FPassing clouds.7 mph94%29.77 "HgN/A
3:50 AM59 °FPartly cloudy.5 mph100%29.77 "HgN/A
3:20 AM59 °FPassing clouds.5 mph94%29.77 "HgN/A
2:50 AM59 °FPartly cloudy.6 mph94%29.74 "HgN/A
2:20 AM59 °FPartly cloudy.3 mph94%29.74 "HgN/A
1:50 AM59 °FPassing clouds.1 mph94%29.74 "HgN/A
1:20 AM59 °FFog.1 mph94%29.74 "HgN/A
12:50 AM57 °FFog.3 mph100%29.74 "HgN/A
12:20 AM59 °FPassing clouds.2 mph94%29.74 "HgN/A
11:50 PM
Tue, Oct 6
59 °FFog.3 mph94%29.74 "HgN/A
11:20 PM61 °FPassing clouds.7 mph94%29.74 "HgN/A
10:50 PM61 °FPassing clouds.8 mph94%29.74 "HgN/A
10:20 PM61 °FPartly cloudy.7 mph94%29.74 "HgN/A
9:50 PM61 °FPassing clouds.6 mph100%29.74 "HgN/A
9:20 PM63 °FPartly cloudy.6 mph94%29.71 "HgN/A
8:50 PM63 °FPassing clouds.7 mph94%29.71 "HgN/A
8:20 PM63 °FPartly cloudy.7 mph94%29.71 "HgN/A
7:50 PM63 °FPartly sunny.8 mph94%29.71 "HgN/A
7:20 PM63 °FPartly sunny.12 mph94%29.71 "HgN/A
6:50 PM63 °FBroken clouds.8 mph94%29.68 "HgN/A
6:20 PM63 °FLight rain. Partly sunny.8 mph94%29.68 "HgN/A
5:50 PM64 °FBroken clouds.8 mph94%29.68 "HgN/A
5:20 PM64 °FPartly sunny.9 mph94%29.65 "HgN/A
4:50 PM64 °FBroken clouds.9 mph94%29.65 "HgN/A
4:20 PM64 °FScattered showers. Partly sunny.7 mph94%29.65 "HgN/A
3:50 PM64 °FRain showers. Partly sunny.7 mph94%29.68 "HgN/A
3:20 PM64 °FLots of rain. Partly sunny.7 mph94%29.68 "Hg3 mi
2:50 PM66 °FRain showers. Broken clouds.2 mph88%29.68 "HgN/A
2:20 PM66 °FScattered showers. Broken clouds.2 mph88%29.68 "HgN/A
1:50 PM64 °FRain showers. Broken clouds.3 mph94%29.68 "HgN/A
1:20 PM64 °FLight rain. Broken clouds.5 mph88%29.68 "HgN/A
12:50 PM64 °FLight rain. Partly sunny.8 mph88%29.71 "HgN/A
12:20 PM64 °FBroken clouds.9 mph88%29.68 "HgN/A
11:50 AM64 °FBroken clouds.5 mph88%29.68 "HgN/A
11:20 AM64 °FPartly sunny.9 mph88%29.68 "HgN/A
10:50 AM64 °FBroken clouds.6 mph88%29.68 "HgN/A
10:20 AM64 °FBroken clouds.6 mph88%29.68 "HgN/A
Weather by CustomWeather, © 2015

See weather overviewHow to use our weather pages